STARLINK-1438 (45715 NORAD) Tracking and Keplerian Element Data

This shows tracking and keplerian element data for the satellite.

Feedback or suggestion? Click here.




ElementValue
Catalog45715
NameSTARLINK-1438
Epoch Orbit568
Epoch Day186.50001157
Epoch Year2020
RAAN20.0752
Inclination53.0012
Eccentricity9.61E-05
Argument of Perigee78.1829
Mean Anonmoly217.8186
Mean Motion15.62712015
Decay Rate0.00046101
L11 45715U 20035BL 20186.50001157 .00046101 00000-0 50725-3 0 9992
L22 45715 53.0012 20.0752 0000961 78.1829 217.8186 15.62712015 5684

Live tracking and technical data element details for STARLINK-1438 (NORAD 45715). STARLINK-1438 can be tracked NOW for your location showing map with azimuth and elevation plus other details from your city location.

Track the satellite on the map from your city or location and see movement details for azimuth, elevation, latitude, longitude, range, height, and movement on the map or in text.







IsCatalogInMostPopularTable: catalog: 45715, numindb: 5
Update: records affected: 1



GetName: 45715 STARLINK-1438

Hit Count: updated at: Sun, 05 Jul 2020 17:34:14 GMT